Starlink 34611

operational
NORAD ID: 64918 Int'l Des: 2025-157 Owner: SPXS Country: US Constellation: starlink
LEOCIRCULAR

About Starlink 34611

Description loading...

Live Position

Loading 3D Globe...

Upcoming Passes

Altitude History

Altitude vs Time

uPlot chart will show altitude changes over time

Two-Line Element Set

1 64918U 25157Q 26061.13873681 .00017612 00000-0 60582-3 0 9991
2 64918 53.1610 21.0321 0001835 27.6408 332.4690 15.30174559 34968
Epoch: Mar 2, 2026 • Age: 30 hours

Current Status

Altitude 479.7 km
Velocity 7.63 km/s
Sub-Earth Point 44.74°N, 110.28°W
Launch Date Jul 26, 2025
Age 0.5 years
Type internet

Technical Details

Classification Payload
Mass 575.00 kg
Dry Mass 530.00 kg
Total Mass 575.00 kg
Length 0.30 m
Diameter 4.10 m
Span 29.00 m
Shape Box + pan
Manufacturer SPXS
Bus Type Starlink V2MO
Phase Status In Orbit
Owner/State SPXS/US

Large Constellations

Loading constellations...